Tracking 19827 objects as of 21-Aug-2019
HD Live streaming from Space Station
objects crossing your sky now

DELTA 2 DEB

Track DELTA 2 DEB now!
10-day predictions


NORAD ID: 26967
Int'l Code: 1993-017E
Perigee: 254.1 km
Apogee: 10,036.3 km
Inclination: 34.9 °
Period: 205.0 minutes
Semi major axis: 11516 km
RCS: 0.0077 m2 (small)
Launch date: March 30, 1993
Source: United States (US)
Launch site: AIR FORCE EASTERN TEST RANGE (AFETR)

Note: This is SATELLITE DEBRIS
aabbcc
Your satellite tracking list
Your tracking list is empty




NASA's NSSDC Master Catalog

Two Line Element Set (TLE):
1 26967U 93017E   19001.80414730 +.00007041 +00000-0 +28862-3 0  9999
2 26967 034.9257 171.5334 4247125 204.7970 332.5218 07.02488127427950
Source of the keplerian elements: AFSPC